Syracuse, NY

1:47 PM EDT on May 21, 2018 (GMT -0400)
Syracuse Hancock International

Weather History for KSYR - February, 2013

Change the Weather History Date:

Thursday, February 21, 2013

  Actual Average Record
Temperature  
Mean Temperature 18 °F 27 °F  
Max Temperature 22 °F 35 °F 75 °F (2018)
Min Temperature 14 °F 19 °F -16 °F (2015)
Degree Days  
Heating Degree Days 47 38  
Month to date heating degree days 879 835  
Since 1 July heating degree days 4146 4571  
Cooling Degree Days 0 0  
Month to date cooling degree days 0 0  
Year to date cooling degree days 0 0  
Moisture  
Dew Point 11 °F    
Average Humidity 76    
Maximum Humidity 84    
Minimum Humidity 67    
Precipitation  
Precipitation 0.04 in 0.08 in 1.49 in (1951)
Month to date precipitation 1.46 1.51  
Year to date precipitation 3.17 4.01  
Snow  
Snow 4.80 in 0.90 in 9.70 in (1993)
Month to date snowfall 33.1 19.4  
Since 1 July snowfall 79.9 96.0  
Snow Depth 4.00 in    
Sea Level Pressure  
Sea Level Pressure 30.17 in    
Wind  
Wind Speed 12 mph (WNW)    
Max Wind Speed 26 mph    
Max Gust Speed 31 mph    
Visibility 3 miles    
Events Snow    
T = Trace of Precipitation, MM = Missing Value Source: NWS Daily Summary

Daily Weather History Graph

Daily Weather History Graph

Search for Another Location

Airport or City:

Astronomy

Feb. 21, 2013 Rise Set
Actual Time 6:52 AM EST 5:43 PM EST
Civil Twilight 6:24 AM EST 6:12 PM EST
Nautical Twilight 5:51 AM EST 6:45 PM EST
Astronomical Twilight 5:18 AM EST 7:18 PM EST
Moon 1:52 PM EST 4:00 AM EST
Length of Visible Light 11h 48m
Length of Day
10h 50m
Waxing Gibbous, 83% of the Moon is Illuminated
Feb 21
Waxing Gibbous
Feb 25
Full
Mar 4
Last Quarter
Mar 11
New
Mar 19
First Quarter

Hourly Weather History & Observations

Time (EST) Temp. Windchill Dew Point Humidity Pressure Visibility Wind Dir Wind Speed Gust Speed Precip Events Conditions
12:07 AM 21.2 °F 6.0 °F 14.0 °F 74% 29.97 in 1.8 mi West 19.6 mph 29.9 mph 0.00 in Snow Light Snow
12:54 AM 21.0 °F 6.6 °F 14.0 °F 74% 29.97 in 1.8 mi West 17.3 mph - 0.00 in Snow Light Snow
1:24 AM 21.2 °F 6.0 °F 14.0 °F 74% 29.96 in 1.5 mi West 19.6 mph - 0.00 in Snow Light Snow
1:54 AM 19.9 °F 3.5 °F 15.1 °F 81% 29.97 in 1.0 mi West 21.9 mph - 0.00 in Snow Light Snow
2:05 AM 19.4 °F 4.1 °F 15.8 °F 86% 29.96 in 0.8 mi West 18.4 mph - 0.00 in Snow Light Snow
2:54 AM 19.9 °F 5.7 °F 16.0 °F 85% 29.96 in 0.8 mi West 16.1 mph - 0.01 in Snow Light Snow
3:54 AM 19.9 °F 7.9 °F 16.0 °F 85% 29.98 in 0.8 mi West 11.5 mph - 0.02 in Snow Light Snow
3:58 AM 19.4 °F 7.9 °F 15.8 °F 86% 29.97 in 3.0 mi West 10.4 mph 21.9 mph 0.00 in Snow Light Snow
4:02 AM 19.4 °F 5.5 °F 15.8 °F 86% 29.97 in 3.0 mi West 15.0 mph 21.9 mph 0.00 in Snow Light Snow
4:33 AM 19.4 °F 4.1 °F 14.0 °F 80% 29.98 in 2.0 mi West 18.4 mph 26.5 mph 0.00 in Snow Light Snow
4:37 AM 19.4 °F 2.8 °F 14.0 °F 80% 29.98 in 2.0 mi West 21.9 mph 26.5 mph 0.00 in Snow Light Snow
4:45 AM 19.4 °F 5.0 °F 14.0 °F 80% 29.99 in 1.2 mi West 16.1 mph 26.5 mph 0.00 in Snow Light Snow
4:54 AM 19.9 °F 6.7 °F 14.0 °F 78% 30.00 in 0.8 mi West 13.8 mph - 0.00 in Snow Light Snow
5:07 AM 19.4 °F 5.0 °F 12.2 °F 74% 30.00 in 1.0 mi WNW 16.1 mph 24.2 mph 0.00 in Snow Light Snow
5:17 AM 19.4 °F 5.0 °F 12.2 °F 74% 30.01 in 0.8 mi WNW 16.1 mph 24.2 mph 0.00 in Snow Light Snow
5:45 AM 17.6 °F 0.9 °F 10.4 °F 73% 30.03 in 1.0 mi WNW 20.7 mph 29.9 mph 0.01 in Snow Light Snow
5:54 AM 17.1 °F 0.6 °F 10.0 °F 74% 30.04 in 1.0 mi WNW 19.6 mph 29.9 mph 0.01 in Snow Light Snow
5:59 AM 17.6 °F 1.3 °F 10.4 °F 73% 30.04 in 1.0 mi WNW 19.6 mph 29.9 mph 0.00 in Snow Light Snow
6:40 AM 15.8 °F 0.3 °F 8.6 °F 73% 30.06 in 3.0 mi West 16.1 mph 25.3 mph 0.00 in Snow Light Snow
6:54 AM 16.0 °F 2.3 °F 9.0 °F 74% 30.08 in 3.0 mi WNW 12.7 mph 24.2 mph 0.00 in Snow Light Snow
6:57 AM 15.8 °F 0.9 °F 8.6 °F 73% 30.07 in 2.5 mi West 15.0 mph 24.2 mph 0.00 in Snow Light Snow
7:13 AM 15.8 °F 0.3 °F 10.4 °F 79% 30.08 in 1.8 mi West 16.1 mph - 0.00 in Snow Light Snow
7:34 AM 15.8 °F 1.4 °F 8.6 °F 73% 30.09 in 1.2 mi WNW 13.8 mph 21.9 mph 0.00 in Snow Light Snow
7:47 AM 15.8 °F 1.4 °F 8.6 °F 73% 30.10 in 2.0 mi WNW 13.8 mph 20.7 mph 0.00 in Snow Light Snow
7:54 AM 15.1 °F -0.1 °F 8.1 °F 74% 30.11 in 2.5 mi WNW 15.0 mph 21.9 mph 0.00 in Snow Light Snow
8:00 AM 15.8 °F -0.6 °F 6.8 °F 68% 30.11 in 3.0 mi WNW 18.4 mph 24.2 mph 0.00 in Snow Light Snow
8:54 AM 14.0 °F -0.2 °F 6.1 °F 71% 30.14 in 3.0 mi WNW 12.7 mph - 0.00 in Snow Light Snow
9:03 AM 14.0 °F -0.8 °F 6.8 °F 73% 30.13 in 2.5 mi WNW 13.8 mph - 0.00 in Snow Light Snow
9:29 AM 14.0 °F -0.8 °F 6.8 °F 73% 30.14 in 1.5 mi WNW 13.8 mph - 0.00 in Snow Light Snow
9:39 AM 14.0 °F -2.5 °F 6.8 °F 73% 30.15 in 2.0 mi WNW 17.3 mph 24.2 mph 0.00 in Snow Light Snow
9:54 AM 14.0 °F -3.0 °F 6.1 °F 71% 30.17 in 2.0 mi WNW 18.4 mph 28.8 mph 0.00 in Snow Light Snow
10:06 AM 14.0 °F -2.0 °F 6.8 °F 73% 30.16 in 3.0 mi WNW 16.1 mph - 0.00 in Snow Light Snow
10:54 AM 15.1 °F 0.5 °F 7.0 °F 70% 30.19 in 3.0 mi WNW 13.8 mph 19.6 mph 0.00 in Snow Light Snow
11:10 AM 15.8 °F 1.4 °F 8.6 °F 73% 30.18 in 2.5 mi WNW 13.8 mph 23.0 mph 0.00 in Snow Light Snow
11:24 AM 15.8 °F -0.2 °F 8.6 °F 73% 30.19 in 2.5 mi West 17.3 mph - 0.00 in Snow Light Snow
11:49 AM 15.8 °F 2.7 °F 8.6 °F 73% 30.18 in 1.8 mi NW 11.5 mph - 0.00 in Snow Light Snow
11:54 AM 16.0 °F 1.1 °F 9.0 °F 74% 30.19 in 2.5 mi West 15.0 mph 19.6 mph 0.00 in Snow Light Snow
12:12 PM 17.6 °F 2.2 °F 8.6 °F 68% 30.18 in 1.8 mi WNW 17.3 mph 21.9 mph 0.00 in Snow Light Snow
12:35 PM 17.6 °F 4.3 °F 8.6 °F 68% 30.18 in 1.0 mi WNW 12.7 mph - 0.00 in Snow Light Snow
12:44 PM 17.6 °F 4.3 °F 10.4 °F 73% 30.18 in 0.8 mi WNW 12.7 mph - 0.00 in Snow Light Snow
12:54 PM 17.1 °F 2.5 °F 9.0 °F 71% 30.19 in 1.0 mi WNW 15.0 mph - 0.00 in Snow Light Snow
12:57 PM 17.6 °F 1.7 °F 8.6 °F 68% 30.18 in 2.0 mi WNW 18.4 mph 23.0 mph 0.00 in Snow Light Snow
1:08 PM 17.6 °F 1.3 °F 8.6 °F 68% 30.19 in 3.0 mi WNW 19.6 mph 25.3 mph 0.00 in Snow Light Snow
1:17 PM 17.6 °F 2.7 °F 8.6 °F 68% 30.19 in 2.0 mi WNW 16.1 mph 25.3 mph 0.00 in Snow Light Snow
1:54 PM 17.1 °F 2.5 °F 9.0 °F 71% 30.20 in 3.0 mi WNW 15.0 mph 23.0 mph 0.00 in Snow Light Snow
2:19 PM 17.6 °F 3.7 °F 10.4 °F 73% 30.20 in 2.0 mi WNW 13.8 mph - 0.00 in Snow Light Snow
2:33 PM 17.6 °F 5.0 °F 10.4 °F 73% 30.21 in 1.5 mi WNW 11.5 mph - 0.00 in Snow Light Snow
2:54 PM 18.0 °F 5.4 °F 10.9 °F 74% 30.23 in 1.2 mi WNW 11.5 mph - 0.00 in Snow Light Snow
3:05 PM 17.6 °F 5.0 °F 10.4 °F 73% 30.23 in 3.0 mi WNW 11.5 mph 20.7 mph 0.00 in Snow Light Snow
3:14 PM 17.6 °F 5.0 °F 10.4 °F 73% 30.24 in 2.5 mi WNW 11.5 mph - 0.00 in Snow Light Snow
3:22 PM 17.6 °F 6.4 °F 10.4 °F 73% 30.24 in 1.8 mi WNW 9.2 mph - 0.00 in Snow Light Snow
3:54 PM 18.0 °F 6.1 °F 10.9 °F 74% 30.27 in 1.5 mi WNW 10.4 mph - 0.00 in Snow Light Snow
4:04 PM 17.6 °F 5.0 °F 10.4 °F 73% 30.26 in 3.0 mi WNW 11.5 mph - 0.00 in Snow Light Snow
4:54 PM 18.0 °F 6.9 °F 10.9 °F 74% 30.30 in 2.5 mi WNW 9.2 mph - 0.00 in Snow Light Snow
5:06 PM 17.6 °F 7.3 °F 12.2 °F 79% 30.29 in 3.0 mi West 8.1 mph - 0.00 in Snow Light Snow
5:34 PM 17.6 °F 7.3 °F 12.2 °F 79% 30.29 in 2.0 mi West 8.1 mph - 0.00 in Snow Light Snow
5:42 PM 17.6 °F 7.3 °F 12.2 °F 79% 30.29 in 1.8 mi West 8.1 mph - 0.00 in Snow Light Snow
5:54 PM 18.0 °F 8.7 °F 12.9 °F 81% 30.32 in 1.8 mi WNW 6.9 mph - 0.00 in Snow Light Snow
6:01 PM 17.6 °F 9.3 °F 12.2 °F 79% 30.30 in 3.0 mi NW 5.8 mph - 0.00 in Snow Light Snow
6:54 PM 19.0 °F 11.1 °F 12.9 °F 77% 30.32 in 9.0 mi West 5.8 mph - 0.00 in Snow Light Snow
7:18 PM 19.4 °F 7.9 °F 14.0 °F 80% 30.34 in 8.0 mi WSW 10.4 mph - 0.00 in Snow Light Snow
7:26 PM 19.4 °F 7.2 °F 14.0 °F 80% 30.35 in 9.0 mi WSW 11.5 mph - 0.00 in Snow Light Snow
7:36 PM 19.4 °F 7.2 °F 14.0 °F 80% 30.36 in 9.0 mi WSW 11.5 mph - 0.00 in Snow Light Snow
7:54 PM 19.0 °F 5.6 °F 14.0 °F 81% 30.40 in 7.0 mi WSW 13.8 mph - 0.00 in Snow Light Freezing Drizzle
8:54 PM 19.0 °F 11.1 °F 15.1 °F 85% 30.41 in 9.0 mi WSW 5.8 mph - 0.00 in Snow Light Snow
9:18 PM 19.4 °F 12.8 °F 15.8 °F 86% 30.40 in 9.0 mi WSW 4.6 mph - 0.00 in Snow Light Snow
9:54 PM 19.9 °F 12.1 °F 15.1 °F 81% 30.41 in 10.0 mi WSW 5.8 mph - 0.00 in   Overcast
10:01 PM 19.4 °F 12.8 °F 15.8 °F 86% 30.39 in 10.0 mi West 4.6 mph - N/A   Overcast
10:16 PM 19.4 °F - 15.8 °F 86% 30.40 in 10.0 mi Calm Calm - N/A   Overcast
10:38 PM 19.4 °F - 15.8 °F 86% 30.41 in 10.0 mi Calm Calm - N/A   Overcast
10:54 PM 19.9 °F 14.9 °F 14.0 °F 78% 30.42 in 10.0 mi SSW 3.5 mph - N/A   Overcast
11:54 PM 21.0 °F - 15.1 °F 78% 30.40 in 10.0 mi Calm Calm - N/A   Overcast